Location: Charlo
(47.4385°N, 114.1723°W)
Time: 12:55:54
(UTC+00:00)

Tiangong - Visible Passes

Search period start: 12 August 2022 00:00
Search period end: 22 August 2022 00:00
Orbit: 379 x 386 km, 41.5° (Epoch: 12 August)

Date Brightness Start Highest point End Pass type
(mag) Time Alt. Az. Time Alt. Az. Time Alt. Az.
17 Aug -0.4 03:55:24 10° SSW 03:57:31 17° SSE 03:57:50 17° SSE visible
18 Aug -0.6 04:30:52 10° SW 04:32:42 22° SSW 04:32:42 22° SSW visible
19 Aug -0.6 03:30:47 10° SW 03:33:15 21° SSE 03:35:11 13° ESE visible
19 Aug 0.5 05:06:51 10° WSW 05:07:21 13° WSW 05:07:21 13° WSW visible
20 Aug -1.0 04:06:30 10° WSW 04:09:13 27° S 04:09:42 26° SSE visible
21 Aug -0.2 04:42:36 10° WSW 04:44:08 20° SW 04:44:08 20° SW visible
